Location: Estes P
(40.3770°N, 105.5210°W)
Time: 16:17:09
(UTC-06:00)

OTV 5 (USA 277) - Visible Passes

Search period start: 18 October 2017 00:00
Search period end: 28 October 2017 00:00
Orbit: 404 x 417 km, 43.0° (Epoch: 07 September)

Date Brightness Start Highest point End Pass type
(mag) Time Alt. Az. Time Alt. Az. Time Alt. Az.
18 Oct ? 18:56:59 10° WNW 19:00:18 54° N 19:03:06 14° E visible
18 Oct ? 20:34:22 10° WNW 20:35:51 24° W 20:35:51 24° W visible
19 Oct ? 19:43:16 10° WNW 19:46:38 83° SSW 19:47:13 58° ESE visible
20 Oct ? 18:52:11 10° WNW 18:55:33 76° NNE 18:58:39 12° E visible
20 Oct ? 20:29:46 10° W 20:31:25 21° WSW 20:31:25 21° WSW visible
21 Oct ? 19:38:32 10° W 19:41:44 41° SSW 19:42:57 28° SSE visible
22 Oct ? 18:47:23 10° WNW 18:50:43 60° SSW 18:54:01 10° ESE visible
22 Oct ? 20:26:06 10° WSW 20:27:24 12° SW 20:27:24 12° SW visible
23 Oct ? 19:34:13 10° W 19:36:39 19° SW 19:39:05 10° SSE visible
24 Oct ? 18:42:48 10° W 18:45:43 27° SSW 18:48:38 10° SSE visible
26 Oct ? 18:39:10 10° WSW 18:40:34 12° SW 18:41:59 10° SSW visible
